Zurück zum Katalog

STARLINK-5725

AktivKommunikationVLEO
NORAD 55605·PAYLOAD·🇺🇸 United States

Gestartet Feb 12, 2023 von Cape Canaveral Space Force Station

Loading…

Nächste Überflüge (nächste 24 Stunden)

TLE

AktuellSource: CelesTrak SupGP

Epoche: Sep 15, 2026, 02:43 UTC

1 55605C 23020AN  26258.11368056  .00002719  00000+0  98478-4 0  2587
2 55605  43.0037   4.3993 0001456 267.8036 321.9396 15.27574948    12

Verfolge STARLINK-5725 in Echtzeit mit AllMySat

Download on the App Store